This is the latest recevied weather packets stored in our database for station/object K0SNA. If no packets are shown the sender has not sent any weather packets the latest 10 day(s).
| Time | Temp. | Humidity | Pressure | Rain* | Wind** | Luminosity | Snow |
|---|---|---|---|---|---|---|---|
| 1787754855 | 20.56° C | 78% | 1015.3 hPa | 0 mm | - | 125 W/m² | - |
| 1787754555 | 20.56° C | 78% | 1015.3 hPa | 0 mm | - | 135 W/m² | - |
| 1787754253 | 20.56° C | 78% | 1015.2 hPa | 0 mm | - | 124 W/m² | - |
| 1787753948 | 21.11° C | 77% | 1015.2 hPa | 0 mm | - | 129 W/m² | - |
| 1787753647 | 21.11° C | 77% | 1015.1 hPa | 0 mm | - | 158 W/m² | - |
| 1787753346 | 21.11° C | 77% | 1015 hPa | 0 mm | - | 298 W/m² | - |
| 1787753041 | 20.56° C | 78% | 1015.1 hPa | 0 mm | - | 224 W/m² | - |
| 1787752740 | 20.56° C | 78% | 1015.2 hPa | 0 mm | - | 208 W/m² | - |
| 1787752435 | 20.56° C | 79% | 1015.2 hPa | 0 mm | - | 193 W/m² | - |
| 1787752131 | 20.56° C | 79% | 1015.3 hPa | 0 mm | - | 181 W/m² | - |
| 1787751824 | 20° C | 80% | 1014.9 hPa | 0 mm | - | 90 W/m² | - |
| 1787751519 | 20° C | 80% | 1015.2 hPa | 0 mm | - | 156 W/m² | - |
| 1787751209 | 20° C | 80% | 1015 hPa | 0 mm | - | 64 W/m² | - |
| 1787750904 | 20° C | 81% | 1015.2 hPa | 0 mm | - | 52 W/m² | - |
| 1787750600 | 20° C | 82% | 1015.2 hPa | 0 mm | - | 50 W/m² | - |
| 1787750300 | 19.44° C | 83% | 1015.2 hPa | 0 mm | - | 50 W/m² | - |
| 1787749995 | 19.44° C | 84% | 1015.3 hPa | 0 mm | - | 105 W/m² | - |
| 1787749691 | 18.89° C | 85% | 1015.2 hPa | 0 mm | - | 47 W/m² | - |
| 1787749386 | 18.89° C | 86% | 1015.1 hPa | 0 mm | - | 45 W/m² | - |
| 1787749086 | 18.33° C | 86% | 1015.2 hPa | 0 mm | - | 91 W/m² | - |
| 1787748781 | 18.33° C | 87% | 1015 hPa | 0 mm | - | 41 W/m² | - |
| 1787748481 | 18.33° C | 87% | 1015.1 hPa | 0 mm | - | 39 W/m² | - |
| 1787748177 | 18.33° C | 87% | 1015.1 hPa | 0 mm | - | 49 W/m² | - |
| 1787747876 | 17.78° C | 88% | 1014.8 hPa | 0 mm | - | 44 W/m² | - |
| 1787747572 | 17.78° C | 88% | 1014.8 hPa | 0 mm | - | 30 W/m² | - |
* Rain latest hour (hover to see other rain measurements)
** Current wind speed in m/s (hover to see current wind gust speed)